Location: Newark
(34.6283°N, 36.0776°E)
Time: 10:06:55
(UTC+00:00)

Tiros 1 despin weight - Pass Details

Date: 28 September 2019
Orbit: 594 x 643 km, 48.2° (Epoch: 15 October)

Event Time Altitude Azimuth Distance (km) Brightness Sun altitude
Rises 11:14:51 0° 312° (NW) 2,880 ? 45.4°
Reaches altitude 10° 11:17:38 10° 329° (NNW) 1,963 ? 45.0°
Maximum altitude 11:21:06 21° 19° (NNE) 1,357 ? 44.6°
Drops below altitude 10° 11:24:32 10° 70° (ENE) 1,939 ? 44.1°
Sets 11:27:16 0° 86° (E) 2,833 ? 43.7°
